Regional Weather Roundup
Issued by NWS

Home | Current Version | Previous Version | Graphics & Text | Print | Product List | Glossary On
Versions: 1 2 3 4 5 6 7 8 9 10 11 12 13 14 15 16 17 18 19 20 21 22 23 24 25 26 27 28 29 30 31 32 33 34 35 36 37 38 39 40 41 42 43 44 45 46 47 48 49 50
101
ASUS45 KTFX 232210
RWRMT
MONTANA REGIONAL WEATHER ROUNDUP
NATIONAL WEATHER SERVICE GREAT FALLS MT
400 PM MDT MON MAY 23 2016

NOTE: "FAIR" INDICATES FEW OR NO CLOUDS BELOW 12000 FEET WITH NO
SIGNIFICANT WEATHER AND/OR OBSTRUCTIONS TO VISIBILITY.

MTZ001>007-043-232300-
WEST OF THE DIVIDE

CITY           SKY/WX    TMP DP  RH WIND       PRES   REMARKS
KALISPELL      LGT RAIN  48  47  96 S10       29.80S
MISSOULA       LGT RAIN  49  41  74 NW3       29.87R
BUTTE          CLOUDY    44  32  62 SW10      29.86R
MULLAN PASS    SNOW      33  33 100 SW9       29.84R VSB 1/4 WCI  25
ANACONDA         N/A     48  30  49 W15G24    29.85R
DEER LODGE       N/A     43  39  87 N10G18    29.87R
EUREKA           N/A     50  41  71 E8        29.79R
HAMILTON         N/A     54  34  47 SE3       29.85R
LIBBY            N/A     52  43  71 N6        29.82R
$$

MTZ008-052>055-232300-
SOUTHWEST MONTANA

CITY           SKY/WX    TMP DP  RH WIND       PRES   REMARKS
BOZEMAN        CLOUDY    53  36  52 SW6       29.83S
DILLON         CLOUDY    53  29  39 W21       29.83S
ENNIS          PTSUNNY   50  30  46 W9G17     29.90S
TWIN BRIDGES     N/A     51  28  41 SW3       29.87R
$$

MTZ009-010-012-014-046-048-049-054-232300-
EAST SLOPES AND CENTRAL MONTANA

CITY           SKY/WX    TMP DP  RH WIND       PRES   REMARKS
CUT BANK       CLOUDY    47  42  83 NW16      29.76R
GREAT FALLS    CLOUDY    49  41  74 W9        29.77R
MALMSTROM AFB  LGT RAIN  49  42  78 W9        29.78R
HELENA         CLOUDY    49  37  63 W14       29.84R
CHOTEAU          N/A     48  45  87 NE6G12    29.77R
$$

MTZ011-013-016-021-045-047-050-051-232300-
NORTH CENTRAL MONTANA

CITY           SKY/WX    TMP DP  RH WIND       PRES   REMARKS
HAVRE          CLOUDY    55  43  63 NW17G26   29.71R
LEWISTOWN      CLOUDY    50  41  71 NW7       29.78R
N BAR RANCH      N/A     52  36  54 W15G23    29.79R
CHINOOK          N/A     55  43  62 W20G28    29.69R
$$

MTZ017>020-022>027-061-062-232300-
NORTHEAST MONTANA

CITY           SKY/WX    TMP DP  RH WIND       PRES   REMARKS
GLASGOW        CLOUDY    61  42  49 W22G30    29.66S
JORDAN           N/A     57  42  57 NW25G32   29.72R
SIDNEY         MOSUNNY   70  39  32 W18       29.66R
WOLF POINT     CLOUDY    65  42  43 W23G31    29.67R
PLENTYWOOD       N/A     61  39  44 SW16G29   29.64R
POPLAR           N/A     63  39  42 SW22      29.67R
SCOBEY           N/A     59  35  40 SW28      29.64R
$$

MTZ028>42-056>058-232300-
SOUTHCENTRAL AND SOUTHEAST MONTANA

CITY           SKY/WX    TMP DP  RH WIND       PRES   REMARKS
BAKER          SUNNY     69  32  25 W18       29.72S
BILLINGS       CLOUDY    59  33  37 NW18G26   29.78R
LIVINGSTON     CLOUDY    54  34  46 S14       29.80S
MILES CITY     SUNNY     70  33  25 W22G31    29.71R
EKALAKA          N/A     67  32  27 NW14      29.74R
FORSYTH          N/A     64  34  32 W15G21    29.73R
$$

REGIONAL REPORTS...DAKOTAS

CITY           SKY/WX    TMP DP  RH WIND       PRES   REMARKS
WILLISTON      MOSUNNY   71  36  27 W20G33    29.64R
MINOT          MOSUNNY   81  30  15 SW21G30   29.63R
DICKINSON      MOSUNNY   72  28  19 W15G25    29.67F
BEACH            N/A     70  28  21 SW21G31   29.73R
CROSBY           N/A     68  34  28 SW29G39   29.64R
WATFORD CITY     N/A     73  32  21 W23G37    29.65S
BISMARCK       MOSUNNY   77  35  21 SW9       29.67S
GRAND FORKS    MOSUNNY   81  42  25 SW5       29.65S
FARGO          MOSUNNY   81  43  26 SW7       29.66S
BUFFALO SD       N/A     74  32  21 S8        29.63S
RAPID CITY     SUNNY     76  24  14 W13G20    29.70F
$$

REGIONAL REPORTS...WYOMING/IDAHO/WASHINGTON

CITY           SKY/WX    TMP DP  RH WIND       PRES   REMARKS
GILLETTE       MOSUNNY   67  26  21 SW15G22   29.74S
SHERIDAN       MOSUNNY   69  27  20 N8        29.75R
BUFFALO WY     CLOUDY    65  29  25 N13G22    29.78S
CODY           MOSUNNY   57  25  28 W9        29.80S
YELLOWSTONE LA   N/A     39  30  70 VRB6      29.95R
IDAHO FALLS    PTSUNNY   60  29  30 SW18G30   29.87F
SALMON         CLOUDY    57  30  35 SW5       29.81S
BOISE          MOSUNNY   69  32  25 MISG      29.84F
SPOKANE        LGT RAIN  55  43  63 SW12      29.83S
$$

REGIONAL REPORTS...ALBERTA

CITY           SKY/WX    TMP DP  RH WIND       PRES   REMARKS
EDMONTON       PTSUNNY   50  43  76 N13       29.75R
CALGARY        CLOUDY    48  37  66 N20G26    29.75R
LETHBRIDGE     PTSUNNY   46  43  87 W15       29.76R
MEDICINE HAT   LGT RAIN  54  45  71 W16G23    29.67R
WATERTON GATE    N/A     45  39  81 SW6         N/A
MILK RIVER       N/A     45  39  81 NW15        N/A
$$

REGIONAL REPORTS...SASKATCHEWAN

CITY           SKY/WX    TMP DP  RH WIND       PRES   REMARKS
SWIFT CURRENT  LGT RAIN  48  45  87 W8        29.54S
REGINA         LGT RAIN  57  41  54 SW16      29.57R
SASKATOON      PTSUNNY   61  37  41 E6        29.56R
CYPRESS HILLS    N/A     41  39  93 W10G17      N/A
VAL MARIE        N/A     55  41  58 W26G32      N/A
ROCKGLEN         N/A     54  43  66 SW23G32     N/A
ASSINIBOIA       N/A     50  48  93 N17         N/A
$$




USA.gov is the U.S. government's official web portal to all federal, state and local government web resources and services.